Location: AstroGeek's Observatory
(41.9520°N, 70.9880°W)
Time: 20:56:12
(UTC-05:00)

ISS - All Passes

Search period start: 27 February 2015 00:00
Search period end: 09 March 2015 01:00
Orbit: 397 x 408 km, 51.6° (Epoch: 27 February)

Date Brightness Start Highest point End Pass type
(mag) Time Alt. Az. Time Alt. Az. Time Alt. Az.
27 Feb - 09:30:09 10° SSW 09:33:00 30° SE 09:35:54 10° ENE daylight
27 Feb - 11:06:23 10° W 11:09:23 35° NNW 11:12:25 10° NE daylight
27 Feb - 12:44:29 10° NW 12:46:31 15° N 12:48:34 10° NNE daylight
27 Feb - 14:21:28 10° NNW 14:23:51 19° NNE 14:26:15 10° ENE daylight
27 Feb - 15:57:31 10° NW 16:00:45 68° NNE 16:03:59 10° ESE daylight
27 Feb - 17:35:01 10° W 17:36:51 14° SW 17:38:37 10° SSW daylight
28 Feb - 08:38:11 10° S 08:40:12 16° SE 08:42:19 10° E daylight
28 Feb - 10:13:09 10° WSW 10:16:21 59° NNW 10:19:34 10° NE daylight
28 Feb - 11:50:58 10° WNW 11:53:17 18° NNW 11:55:36 10° NNE daylight
28 Feb - 13:28:33 10° NNW 13:30:38 16° N 13:32:44 10° NE daylight
28 Feb - 15:04:38 10° NW 15:07:43 39° NNE 15:10:47 10° E daylight
28 Feb - 16:41:15 10° WNW 16:44:03 26° SW 16:46:49 10° SSE daylight
01 Mar - 09:20:08 10° SW 09:23:21 73° SE 09:26:34 10° ENE daylight
01 Mar - 10:57:25 10° WNW 11:00:03 22° NNW 11:02:41 10° NE daylight
01 Mar - 12:35:24 10° NW 12:37:20 15° N 12:39:16 10° NE daylight
01 Mar - 14:11:46 10° NW 14:14:33 26° NNE 14:17:22 10° E daylight
01 Mar - 15:47:58 10° WNW 15:51:09 52° SW 15:54:18 10° SE daylight
02 Mar - 08:27:23 10° SSW 08:30:22 36° SE 08:33:23 10° ENE daylight
02 Mar - 10:03:53 10° W 10:06:49 31° NNW 10:09:46 10° NE daylight
02 Mar - 11:41:59 10° NW 11:43:59 15° N 11:45:58 10° NNE daylight
02 Mar - 13:18:50 10° NW 13:21:18 20° NNE 13:23:47 10° ENE daylight
02 Mar - 14:54:52 10° NW 14:58:07 81° NE 15:01:22 10° ESE daylight
02 Mar - 16:32:52 10° WSW 16:34:09 12° SW 16:35:20 10° SSW daylight
03 Mar - 07:35:05 10° S 07:37:25 19° SE 07:39:49 10° E daylight
03 Mar - 09:10:28 10° WSW 09:13:37 51° NNW 09:16:48 10° NE daylight
03 Mar - 10:48:22 10° NW 10:50:37 17° N 10:52:50 10° NNE daylight
03 Mar - 12:25:47 10° NNW 12:27:56 16° N 12:30:06 10° NE daylight
03 Mar - 14:01:50 10° NW 14:04:59 44° NNE 14:08:06 10° ESE daylight
03 Mar - 15:38:37 10° W 15:41:14 22° SW 15:43:49 10° S daylight
04 Mar - 08:17:14 10° SW 08:20:27 86° SSE 08:23:42 10° NE daylight
04 Mar - 09:54:40 10° WNW 09:57:13 21° NNW 09:59:46 10° NE daylight
04 Mar - 11:32:33 10° NW 11:34:31 15° N 11:36:28 10° NE daylight
04 Mar - 13:08:49 10° NW 13:11:42 29° NNE 13:14:35 10° E daylight
04 Mar - 14:45:07 10° WNW 14:48:13 43° SW 14:51:17 10° SSE daylight
05 Mar - 07:24:16 10° SSW 07:27:20 43° SE 07:30:26 10° ENE daylight
05 Mar - 09:00:59 10° W 09:03:50 28° NNW 09:06:43 10° NE daylight
05 Mar - 10:39:04 10° NW 10:41:02 15° N 10:42:59 10° NE daylight
05 Mar - 12:15:46 10° NW 12:18:19 21° NNE 12:20:53 10° ENE daylight
05 Mar - 13:51:50 10° NW 13:55:05 86° SSW 13:58:18 10° SE daylight
06 Mar - 06:31:41 10° S 06:34:14 22° SE 06:36:51 10° E daylight
06 Mar - 08:07:23 10° WSW 08:10:30 44° NNW 08:13:37 10° NE daylight
06 Mar - 09:45:21 10° NW 09:47:30 16° N 09:49:40 10° NNE daylight
06 Mar - 11:22:37 10° NNW 11:24:50 17° N 11:27:04 10° NE daylight
06 Mar - 12:58:38 10° NW 13:01:48 51° NNE 13:04:58 10° ESE daylight
06 Mar - 14:35:36 10° W 14:38:00 19° SW 14:40:21 10° S daylight
07 Mar - 05:40:02 10° SSE 05:41:09 12° SE 05:42:24 10° ESE visible
07 Mar - 07:13:57 10° WSW 07:17:10 81° NW 07:20:25 10° NE daylight
07 Mar - 08:51:30 10° WNW 08:53:59 20° NNW 08:56:27 10° NE daylight
07 Mar - 10:29:18 10° NNW 10:31:16 15° N 10:33:16 10° NE daylight
07 Mar - 12:05:29 10° NW 12:08:25 31° NNE 12:11:22 10° E daylight
07 Mar - 13:41:51 10° WNW 13:44:51 36° SW 13:47:52 10° SSE daylight
08 Mar - 07:20:45 10° SW 07:23:53 51° SE 07:27:03 10° ENE daylight
08 Mar - 08:57:39 10° W 09:00:27 26° NNW 09:03:15 10° NE daylight
08 Mar - 10:35:43 10° NW 10:37:40 15° N 10:39:35 10° NE daylight
08 Mar - 12:12:17 10° NW 12:14:55 22° NNE 12:17:34 10° ENE daylight
08 Mar - 13:48:22 10° WNW 13:51:36 74° SW 13:54:50 10° SE daylight
